Location: Obersdorf
(47.4079°N, 10.2781°E)
Time: 04:48:12
(UTC+02:00)

Nauka - Pass Details

Date: 04 October 2021
Orbit: 417 x 423 km, 51.6° (Epoch: 19 October)

Event Time Altitude Azimuth Distance (km) Brightness Sun altitude
Rises 19:31:21 0° 294° (WNW) 2,365 ? -7.4°
Reaches altitude 10° 19:33:28 10° 291° (WNW) 1,500 ? -7.8°
Maximum altitude 19:36:48 64° 209° (SSW) 469 ? -8.4°
Drops below altitude 10° 19:40:07 10° 128° (SE) 1,495 ? -8.9°
Enters shadow 19:40:25 - 127° (SE) 1,616 ? -9.0°
